Theta_e
315 313 314 317 317 317 315 315 319 318 320 321 327 331 340 343 347 348 348 345 347 345 343 344 343 342 342 342 342 342 342 342
313 313 313 312 313 317 314 320 323 319 321 321 328 329 340 340 345 348 348 346 346 346 344 344 344 344 343 343 342 343 342 342
311 312 313 310 310 308 311 314 318 320 320 325 327 326 328 336 341 344 346 347 345 346 345 345 345 344 344 343 343 343 343 343
312 309 311 309 309 306 309 312 313 316 322 317 318 325 337 341 342 342 343 344 345 345 345 343 344 344 344 344 343 343 343 343
310 309 307 309 309 309 304 306 309 315 316 317 322 337 337 338 340 344 344 346 346 347 345 344 343 345 344 344 344 344 344 343
310 310 308 310 310 309 307 308 310 310 311 321 328 335 334 333 335 338 342 344 343 343 344 345 345 345 346 346 345 344 344 344
310 311 312 313 313 313 313 311 311 311 312 320 321 328 329 328 331 334 335 336 336 339 342 343 343 343 344 346 346 346 346 345
311 312 312 312 312 312 313 313 313 315 314 317 321 325 325 325 326 329 328 330 330 331 335 338 344 344 343 340 345 347 347 347
312 310 310 310 311 311 317 318 318 315 318 317 317 320 320 322 323 324 325 326 331 332 331 338 337 344 345 343 342 344 346 348
309 309 310 308 309 312 317 316 315 315 315 315 315 317 316 318 320 321 323 324 326 329 334 335 338 345 346 346 343 343 348 348
310 309 309 311 311 312 314 316 314 314 313 313 312 317 318 312 311 317 320 321 321 324 328 333 332 339 347 350 346 344 347 351
308 310 313 309 312 312 312 315 312 312 311 311 311 315 318 312 308 310 315 318 318 319 323 327 330 329 329 344 346 342 341 345
308 308 310 311 309 312 314 311 310 310 309 308 308 310 309 309 308 310 314 317 318 319 319 323 326 326 325 325 338 340 341 345
311 310 310 309 309 313 309 309 308 307 307 307 307 307 308 308 309 309 311 314 316 317 317 319 324 324 325 325 325 329 340 341
309 308 309 308 308 306 307 307 306 306 306 306 306 306 306 308 309 310 311 313 315 317 319 321 322 323 324 326 328 327 327 337
304 304 307 306 306 306 306 306 306 305 306 305 305 305 305 306 309 311 311 313 316 318 318 319 322 322 323 323 327 329 330 328
301 303 305 306 306 305 305 305 304 304 304 304 304 304 305 308 308 308 310 314 316 317 319 321 321 321 322 323 324 326 328 329
301 304 305 305 305 306 305 305 305 304 305 305 304 304 305 306 307 307 309 312 316 316 320 319 322 321 321 321 322 323 325 328
306 307 307 307 307 306 306 305 305 305 305 304 304 305 305 305 306 308 310 312 315 316 318 318 319 319 320 320 321 322 324 326
Wind_Speed
4 6 2 2 4 1 7 4 3 3 5 5 11 13 6 20 22 32 36 39 39 41 49 54 54 55 50 47 44 39 36 29
5 5 9 7 2 3 4 4 3 3 2 3 10 12 11 3 16 22 28 32 32 39 49 53 54 54 52 48 47 42 39 35
2 6 4 7 5 5 3 4 5 3 1 5 7 8 8 14 13 24 34 37 37 39 47 53 53 55 55 53 51 48 45 39
4 6 6 10 5 4 4 5 2 2 2 8 10 10 17 21 24 15 36 36 41 34 41 37 41 48 55 55 53 50 47 43
4 6 8 7 6 4 4 3 3 1 2 10 18 18 26 30 34 22 6 9 13 13 24 26 25 32 42 47 52 51 47 47
4 3 3 3 5 5 5 4 4 3 4 11 16 17 24 29 31 29 19 10 11 10 8 9 17 21 27 37 45 48 49 48
2 2 2 2 4 5 3 4 4 6 5 7 12 12 19 23 28 29 30 22 16 9 6 2 7 9 16 27 29 37 45 49
6 4 5 2 4 5 6 3 2 5 2 6 13 17 21 24 24 25 28 25 21 15 10 7 2 10 15 12 25 30 36 43
3 6 6 5 6 5 2 3 3 5 1 5 6 14 17 21 24 24 25 24 23 18 16 14 10 2 13 19 14 24 29 32
2 4 1 5 3 5 8 5 4 3 5 6 8 6 13 18 20 24 25 24 23 19 15 15 18 13 4 11 21 22 21 33
4 3 5 4 4 4 2 4 3 2 3 8 16 9 10 18 19 18 20 22 22 23 18 18 16 20 14 3 10 15 18 19
3 3 5 5 3 11 5 3 3 4 5 10 15 1 4 18 24 21 17 18 23 21 21 16 15 14 17 12 6 7 12 14
3 4 6 2 9 5 3 2 2 5 6 9 1 9 21 25 25 20 18 17 20 20 20 20 16 13 13 15 12 11 10 9
2 2 7 3 2 3 2 8 8 9 13 15 16 17 23 25 25 22 21 18 16 22 21 20 17 17 12 15 15 16 15 10
6 4 2 1 4 11 13 14 14 15 18 21 22 18 20 25 28 23 21 21 19 21 22 17 18 15 20 16 19 18 21 17
4 4 4 9 16 11 11 16 20 22 22 21 24 22 26 25 25 27 23 21 20 22 22 23 18 17 15 21 26 24 25 28
5 11 14 8 7 8 7 12 20 22 22 24 25 26 25 27 30 31 26 22 22 24 22 22 21 17 18 20 26 31 32 32
5 8 6 10 9 9 12 16 21 24 22 21 23 26 25 29 30 30 27 22 24 26 23 21 20 21 19 22 25 29 37 35
5 5 11 13 15 14 14 16 21 23 19 21 22 22 25 29 28 28 29 28 25 24 26 23 21 20 22 24 24 28 31 30
Wind_Direction
7 37 52 298 42 247 104 12 76 264 294 6 358 7 280 217 212 218 213 212 212 210 212 214 214 214 216 218 219 221 223 220
303 18 25 78 316 54 11 122 158 319 62 306 344 352 353 333 231 222 220 218 222 212 214 219 219 219 219 222 222 224 224 222
41 20 345 16 11 11 111 85 143 140 352 332 320 325 332 326 278 232 221 218 222 214 216 222 224 223 223 223 221 224 223 223
51 326 78 92 63 88 97 329 17 148 223 344 322 324 8 360 349 295 232 221 225 224 217 219 220 220 225 225 226 227 228 226
18 352 10 46 7 34 108 57 9 100 282 338 353 13 19 18 15 43 106 171 193 201 206 215 215 225 224 225 229 230 230 230
155 163 221 18 28 43 84 75 298 242 330 335 0 2 14 18 23 31 51 87 108 115 102 207 228 232 226 231 232 232 234 234
133 215 106 141 57 77 89 197 169 281 35 321 337 354 7 22 28 29 33 53 52 63 66 231 211 219 239 241 239 238 238 239
356 353 36 336 234 199 224 162 211 250 126 315 352 11 15 24 25 28 24 29 42 51 49 24 34 239 235 234 233 237 238 241
308 328 349 60 61 66 98 350 290 221 147 360 349 7 12 12 20 20 18 12 20 34 38 28 21 289 227 224 232 229 239 246
191 11 322 233 256 157 129 81 40 47 360 24 334 312 46 34 17 7 6 7 5 7 13 16 21 360 337 238 222 233 246 245
139 191 295 292 70 59 352 195 100 191 340 5 348 220 226 7 7 354 349 347 350 356 348 358 14 13 3 330 216 226 222 228
143 155 229 241 31 330 290 274 81 87 8 9 0 121 269 325 339 336 330 334 335 341 346 338 345 357 3 1 346 269 233 215
189 204 281 23 315 342 178 233 8 334 322 323 284 278 289 306 314 322 317 321 327 327 332 336 330 335 324 1 349 312 298 289
163 218 269 12 8 184 333 297 296 294 300 304 300 291 292 298 304 308 308 307 313 312 316 321 325 314 318 319 335 329 318 279
197 221 182 208 265 304 280 285 300 295 298 293 289 283 282 291 296 296 300 295 299 298 301 303 310 315 301 300 303 309 319 314
21 307 287 304 304 293 274 295 305 301 294 288 282 282 278 282 285 289 291 280 284 289 291 293 296 305 305 288 297 294 295 298
261 278 283 274 285 302 310 316 328 311 295 285 280 280 281 282 280 283 283 269 266 279 281 279 280 282 292 291 287 291 288 290
220 224 222 271 283 294 304 322 328 327 307 298 289 286 280 280 282 284 280 266 260 265 269 264 271 278 280 281 286 292 292 287
198 224 260 285 288 295 293 311 325 326 312 311 306 291 286 281 280 277 271 268 255 252 258 262 266 268 277 278 281 279 287 289